Weather in Astrakhanka

Kazakhstan     51°31′38″N   69°47′50″E
temp.,
°C
wind,
m/s
gust,
m/s
humid.,
%
clouds,
%
prec.,
mm/h
press.,
hPa
HPBL,
m
27 february, sat
sat2723:00−29s34970 0.0 103833
02:00−29s45960 0.0 103752
05:00−29sse45980 0.0 103645
08:00−27sse45970 0.0 103579
11:00−21s57939 0.0 1034245
14:00−17s58910 0.0 1032335
17:00−18sse510925 0.0 1030228
20:00−17sse71291100 0.0 1028335
28 february, sun
sun2823:00−14sse81493100 0.2 1026457
02:00−13s81591100 0.4 1022549
05:00−11sse81593100 0.6 1018562
08:00−7s81494100 0.8 1015584
11:00−4s91395100 2.3 1012650
14:00−1s101596100 1.5 1008791
17:00+1sw91699100 4.4 1005719
20:00+1wsw101698100 0.9 1005873
1 march, mon
mon123:00+1sw91597100 1.0 1007787
02:000sw10179299 0.3 10071027
05:00−3sw7168997 0.4 1008580
08:00−4sw6129639 0.1 1009455
11:00−5wsw8128768 0.3 1011751
14:00−8wsw6109293 0.0 1014391
17:00−10w489597 0.0 1017245
20:00−14wsw349789 0.0 101949
2 march, tue
tue223:00−15sw239780 0.0 102020
02:00−15sw239784 0.0 101921
05:00−15ssw339793 0.1 101830
08:00−15sw3397100 0.1 101852
11:00−14wsw5794100 0.1 1017342
14:00−14wsw5892100 0.0 1018442
17:00−16wsw4994100 0.1 1018386
20:00−19wsw4898100 0.1 1020187
3 march, wed
wed323:00−19wsw489798 0.1 1021232
02:00−19sw489798 0.1 1021204
05:00−20sw479799 0.1 1022185
08:00−22sw4698100 0.1 102398
11:00−19sw469398 0.1 1023278
14:00−16ssw479172 0.0 1023342
17:00−17ssw469374 0.0 1023129
20:00−18ssw459574 0.0 102363